EW3163 Weather Reports


Display with metric or nautical units.
time (UTC)temp
F
wind
direction
speed
MPH
gust
MPH
rain 1hr
in
rain 24hr
in
rain mn
in
humidity
%
barometer
mb
20260506044523 32 334 0.0 0.0 0.00 0.00 0.00 95 1016.3
20260506043017 32 335 0.0 0.0 0.00 0.00 0.00 95 1016.3
20260506041525 32 335 0.0 0.0 0.00 0.00 0.00 94 1016.3
20260506040013 32 335 0.0 0.0 0.00 0.00 0.00 94 1016.3
20260506034512 33 335 0.0 0.0 0.00 0.00 0.00 94 1016.4
20260506033010 33 335 0.0 0.0 0.00 0.00 0.00 94 1016.3
20260506031514 33 334 0.0 0.0 0.00 0.00 0.00 94 1016.4
20260506030010 33 335 0.0 0.0 0.00 0.00 0.00 94 1016.3
20260506024507 33 335 0.0 0.0 0.00 0.00 0.00 94 1016.3
20260506023004 33 335 0.0 0.0 0.00 0.00 0.00 94 1016.4
20260506021506 33 334 0.0 0.0 0.00 0.00 0.00 94 1016.4
20260506020002 33 335 0.0 0.0 0.00 0.00 0.00 93 1016.4
20260506014601 33 335 0.0 0.0 0.00 0.00 0.00 93 1016.5
20260506014500 33 335 0.0 0.0 0.00 0.00 0.00 93 1016.5
20260506013058 34 335 0.0 0.0 0.00 0.00 0.00 93 1016.5
20260506011556 34 335 0.0 0.0 0.00 0.00 0.00 92 1016.5
20260506010054 35 335 0.0 0.0 0.00 0.00 0.00 92 1016.5
20260506004556 35 334 0.0 0.0 0.00 0.00 0.00 91 1016.6
20260506003048 36 335 0.0 0.0 0.00 0.00 0.00 91 1016.5
20260506001606 37 335 0.0 0.0 0.00 0.00 0.00 91 1016.6
20260506000047 38 335 0.0 0.0 0.00 0.00 0.00 90 1016.6
20260505234547 38 335 0.0 0.0 0.00 0.00 0.00 90 1016.7
20260505233037 39 334 0.0 0.0 0.00 0.00 0.00 90 1016.8
20260505231541 39 334 0.0 0.0 0.00 0.00 0.00 90 1016.9
20260505230037 39 351 0.0 0.0 0.00 0.00 0.00 90 1016.9
20260505224538 39 13 0.0 0.0 0.00 0.00 0.00 91 1017.0
20260505223041 40 13 0.0 0.0 0.00 0.00 0.00 90 1016.9
20260505221531 40 13 0.0 0.0 0.00 0.00 0.00 88 1016.8
20260505220038 41 13 0.0 0.0 0.00 0.00 0.00 89 1016.8
20260505214548 40 13 0.0 0.0 0.00 0.00 0.00 89 1016.9
20260505213048 40 13 0.0 0.0 0.00 0.00 0.00 87 1016.9
20260505211528 41 13 0.0 0.0 0.00 0.00 0.00 87 1017.0
20260505210030 42 13 0.0 0.0 0.00 0.00 0.00 86 1017.0
20260505204531 42 13 0.0 1.0 0.00 0.00 0.00 85 1017.0
20260505203026 43 356 0.0 2.0 0.00 0.00 0.00 86 1016.9
20260505201542 44 1 0.0 1.0 0.00 0.00 0.00 86 1016.9
20260505200028 44 1 0.0 8.0 0.00 0.00 0.00 86 1016.8
20260505194523 44 18 0.0 4.0 0.00 0.00 0.00 86 1016.8
20260505193038 44 14 2.0 10.0 0.00 0.00 0.00 86 1016.7
20260505191520 44 349 0.0 6.0 0.00 0.00 0.00 86 1016.7
20260505190029 45 354 0.0 8.0 0.00 0.00 0.00 86 1016.5
20260505184519 45 34 1.0 6.0 0.00 0.00 0.00 85 1016.4
20260505183022 45 308 1.0 8.0 0.00 0.00 0.00 84 1016.4
20260505181518 45 13 0.0 7.0 0.00 0.00 0.00 83 1016.3
20260505180029 45 19 3.0 11.0 0.00 0.00 0.00 81 1016.3
20260505174517 46 318 4.0 13.0 0.00 0.00 0.00 81 1016.2
20260505173014 46 40 2.0 11.0 0.00 0.00 0.00 81 1016.2
20260505171524 46 46 4.0 14.0 0.00 0.00 0.00 80 1016.3
20260505170015 46 6 1.0 8.0 0.00 0.00 0.00 80 1016.2
20260505164523 46 330 4.0 11.0 0.00 0.00 0.00 80 1016.2
20260505163009 47 285 0.0 8.0 0.00 0.00 0.00 83 1016.1
20260505161506 47 300 4.0 17.0 0.00 0.00 0.00 81 1015.9
20260505153004 47 310 6.0 12.0 0.00 0.00 0.00 81 1015.8
20260505151502 47 301 4.0 15.0 0.00 0.00 0.00 81 1015.7
20260505140117 49 7 1.0 9.0 0.00 0.00 0.00 82 1015.3
20260505124553 50 22 2.0 12.0 0.00 0.00 0.00 78 1015.0
20260505123107 49 8 1.0 10.0 0.00 0.00 0.00 81 1015.0
20260505121547 49 32 1.0 8.0 0.00 0.00 0.00 81 1014.9
20260505120051 48 351 2.0 13.0 0.00 0.00 0.00 82 1014.9
20260505114554 49 328 1.0 11.0 0.00 0.00 0.00 82 1014.6
20260505113050 49 6 2.0 10.0 0.00 0.00 0.00 85 1014.6
20260505111543 48 8 3.0 12.0 0.00 0.00 0.00 89 1014.7
20260505101545 48 321 0.0 3.0 0.00 0.00 0.00 92 1014.6
20260505100038 49 307 0.0 5.0 0.00 0.00 0.00 88 1014.4
20260505094536 49 322 0.0 1.0 0.00 0.00 0.00 83 1014.3
20260505093043 50 13 0.0 4.0 0.00 0.00 0.00 82 1014.3
20260505091542 50 12 0.0 4.0 0.00 0.00 0.00 81 1014.2
20260505090046 50 319 0.0 1.0 0.00 0.00 0.00 81 1014.2
20260505084534 50 321 0.0 1.0 0.00 0.00 0.00 80 1014.1
20260505083033 50 356 0.0 3.0 0.00 0.00 0.00 81 1014.2
20260505081537 50 299 0.0 0.0 0.00 0.00 0.00 83 1014.1
20260505080045 49 327 0.0 1.0 0.00 0.00 0.00 83 1014.1
20260505074525 49 334 0.0 1.0 0.00 0.00 0.00 83 1014.0
20260505073024 49 317 0.0 1.0 0.00 0.00 0.00 85 1014.0
20260505071522 48 316 0.0 0.0 0.00 0.00 0.00 88 1014.1
20260505070022 47 356 0.0 0.0 0.00 0.00 0.00 89 1014.1
20260505064516 46 309 0.0 0.0 0.00 0.00 0.00 90 1013.9
20260505063015 45 292 0.0 0.0 0.00 0.00 0.00 91 1013.9
20260505061518 44 143 0.0 0.0 0.00 0.00 0.00 94 1013.9
20260505060020 43 139 0.0 0.0 0.00 0.00 0.00 94 1013.9
20260505054517 41 139 0.0 0.0 0.00 0.00 0.00 94 1013.8